Location: downtown San Diego
(32.7310°N, 117.1990°W)
Time: 07:43:14
(UTC-07:00)

Lacrosse 5 - Pass Details

Date: 12 July 2018
Orbit: 714 x 724 km, 57.0° (Epoch: 10 July)

Event Time Altitude Azimuth Distance (km) Brightness Sun altitude
Rises 21:11:36 0° 336° (NNW) 3,121 6.3 -13.8°
Reaches altitude 10° 21:14:51 10° 357° (N) 2,197 5.0 -14.3°
Maximum altitude 21:18:03 17° 36° (NE) 1,785 3.9 -14.9°
Drops below altitude 10° 21:21:14 10° 76° (ENE) 2,190 4.0 -15.4°
Enters shadow 21:21:22 10° 77° (ENE) 2,223 4.0 -15.4°
